When you browse on this site, cookies collect data to enhance your experience and personalize the content and advertising you see.
Visit our Privacy Policy to learn more. By continuing to use the site, you agree to this use of cookies and data.

Stündliche Wetter Asadabad

Heute, 12 August, Mittwoch

Zeit Temperatur Niederschläge Wind Luftdruck Luftfeuchtigkeit
00:00 +26°C° 0.2 mm 0 m/S 654 mmHg 80%
01:00 +26°C° 0.2 mm 0 m/S 653 mmHg 81%
02:00 +25°C° 0.2 mm 0 m/S 653 mmHg 81%
03:00 +25°C° 0.1 mm 0 m/S 653 mmHg 81%
04:00 +25°C° 0.1 mm 0 m/S 653 mmHg 80%
05:00 +24°C° 0 mm 0 m/S 653 mmHg 77%
06:00 +25°C° 0 mm 0 m/S 653 mmHg 73%
07:00 +26°C° 0 mm 0 m/S 653 mmHg 68%
08:00 +27°C° 0 mm 0 m/S 654 mmHg 64%
09:00 +30°C° 0.2 mm 1 m/S 654 mmHg 60%
10:00 +31°C° 0.2 mm 2 m/S 654 mmHg 56%
11:00 +32°C° 0 mm 2 m/S 654 mmHg 50%
12:00 +34°C° 0 mm 2 m/S 654 mmHg 47%
13:00 +35°C° 0 mm 3 m/S 654 mmHg 44%
14:00 +36°C° 0 mm 3 m/S 654 mmHg 41%
15:00 +36°C° 0 mm 3 m/S 653 mmHg 40%
16:00 +36°C° 0 mm 3 m/S 653 mmHg 39%
17:00 +36°C° 0 mm 2 m/S 653 mmHg 38%
18:00 +34°C° 0 mm 2 m/S 653 mmHg 46%
19:00 +32°C° 0 mm 2 m/S 653 mmHg 54%
20:00 +30°C° 0 mm 1 m/S 653 mmHg 63%
21:00 +30°C° 0 mm 1 m/S 653 mmHg 66%
22:00 +29°C° 0 mm 1 m/S 653 mmHg 70%
23:00 +29°C° 0 mm 1 m/S 654 mmHg 74%

Morgen, 13 August, Donnerstag

Zeit Temperatur Niederschläge Wind Luftdruck Luftfeuchtigkeit
00:00 +28°C° 0.1 mm 1 m/S 653 mmHg 74%
01:00 +26°C° 0.1 mm 0 m/S 653 mmHg 74%
02:00 +26°C° 0.1 mm 0 m/S 653 mmHg 73%
03:00 +25°C° 0.1 mm 0 m/S 653 mmHg 73%
04:00 +25°C° 0.1 mm 0 m/S 653 mmHg 73%
05:00 +24°C° 0.1 mm 0 m/S 653 mmHg 73%
06:00 +25°C° 0 mm 0 m/S 653 mmHg 68%
07:00 +27°C° 0 mm 0 m/S 654 mmHg 63%
08:00 +28°C° 0 mm 0 m/S 654 mmHg 57%
09:00 +31°C° 0.1 mm 1 m/S 654 mmHg 54%
10:00 +32°C° 0.1 mm 1 m/S 654 mmHg 50%
11:00 +34°C° 0.1 mm 2 m/S 654 mmHg 46%
12:00 +35°C° 0 mm 2 m/S 654 mmHg 43%
13:00 +36°C° 0 mm 3 m/S 654 mmHg 39%
14:00 +36°C° 0 mm 3 m/S 654 mmHg 36%
15:00 +36°C° 0 mm 3 m/S 653 mmHg 35%
16:00 +36°C° 0 mm 3 m/S 653 mmHg 35%
17:00 +36°C° 0 mm 3 m/S 652 mmHg 34%
18:00 +35°C° 0 mm 2 m/S 652 mmHg 43%
19:00 +32°C° 0 mm 2 m/S 652 mmHg 53%
20:00 +30°C° 0 mm 1 m/S 652 mmHg 62%
21:00 +29°C° 0 mm 1 m/S 652 mmHg 66%
22:00 +29°C° 0 mm 1 m/S 653 mmHg 70%
23:00 +28°C° 0 mm 1 m/S 653 mmHg 74%

übermorgen, 14 August, Freitag

Zeit Temperatur Niederschläge Wind Luftdruck Luftfeuchtigkeit
00:00 +26°C° 0.1 mm 0 m/S 653 mmHg 74%
01:00 +26°C° 0.1 mm 0 m/S 653 mmHg 74%
02:00 +25°C° 0.1 mm 0 m/S 653 mmHg 75%
03:00 +25°C° 0.1 mm 0 m/S 653 mmHg 74%
04:00 +25°C° 0.1 mm 0 m/S 652 mmHg 73%
05:00 +24°C° 0.1 mm 0 m/S 652 mmHg 73%
06:00 +25°C° 0 mm 0 m/S 653 mmHg 67%
07:00 +26°C° 0 mm 0 m/S 653 mmHg 62%
08:00 +27°C° 0 mm 0 m/S 653 mmHg 57%
09:00 +30°C° 0 mm 1 m/S 653 mmHg 53%
10:00 +31°C° 0 mm 2 m/S 653 mmHg 49%
11:00 +34°C° 0 mm 2 m/S 653 mmHg 45%
12:00 +34°C° 0 mm 2 m/S 653 mmHg 41%
13:00 +35°C° 0 mm 2 m/S 653 mmHg 37%
14:00 +36°C° 0 mm 3 m/S 653 mmHg 34%
15:00 +36°C° 0 mm 3 m/S 653 mmHg 33%
16:00 +36°C° 0 mm 3 m/S 652 mmHg 33%
17:00 +36°C° 0 mm 3 m/S 652 mmHg 32%
18:00 +34°C° 0 mm 2 m/S 652 mmHg 43%
19:00 +32°C° 0 mm 2 m/S 652 mmHg 53%
20:00 +30°C° 0 mm 1 m/S 652 mmHg 63%
21:00 +29°C° 0 mm 1 m/S 652 mmHg 67%
22:00 +29°C° 0 mm 1 m/S 652 mmHg 70%
23:00 +28°C° 0 mm 1 m/S 652 mmHg 74%

15 August, Samstag

Zeit Temperatur Niederschläge Wind Luftdruck Luftfeuchtigkeit
00:00 +28°C° 0 mm 1 m/S 652 mmHg 74%
01:00 +28°C° 0 mm 1 m/S 652 mmHg 75%
02:00 +25°C° 0 mm 0 m/S 652 mmHg 75%
03:00 +25°C° 0 mm 0 m/S 652 mmHg 73%
04:00 +27°C° 0 mm 1 m/S 652 mmHg 71%
05:00 +26°C° 0 mm 1 m/S 651 mmHg 69%
06:00 +25°C° 0 mm 0 m/S 652 mmHg 65%
07:00 +26°C° 0 mm 0 m/S 652 mmHg 61%
08:00 +27°C° 0 mm 0 m/S 652 mmHg 58%
09:00 +30°C° 0 mm 1 m/S 652 mmHg 53%
10:00 +32°C° 0 mm 1 m/S 652 mmHg 48%
11:00 +34°C° 0 mm 2 m/S 653 mmHg 43%
12:00 +35°C° 0 mm 2 m/S 652 mmHg 40%
13:00 +36°C° 0 mm 3 m/S 652 mmHg 38%
14:00 +36°C° 0 mm 3 m/S 652 mmHg 35%
15:00 +36°C° 0 mm 3 m/S 652 mmHg 35%
16:00 +36°C° 0 mm 3 m/S 652 mmHg 36%
17:00 +36°C° 0 mm 3 m/S 652 mmHg 36%
18:00 +35°C° 0 mm 2 m/S 652 mmHg 46%
19:00 +32°C° 0 mm 2 m/S 652 mmHg 55%
20:00 +30°C° 0 mm 1 m/S 652 mmHg 64%
21:00 +30°C° 0 mm 1 m/S 652 mmHg 68%
22:00 +29°C° 0 mm 1 m/S 652 mmHg 72%
23:00 +29°C° 0 mm 1 m/S 652 mmHg 76%

16 August, Sonntag

Zeit Temperatur Niederschläge Wind Luftdruck Luftfeuchtigkeit
00:00 +28°C° 0 mm 1 m/S 652 mmHg 77%
01:00 +26°C° 0 mm 0 m/S 652 mmHg 78%
02:00 +25°C° 0 mm 0 m/S 652 mmHg 79%
03:00 +25°C° 0 mm 0 m/S 652 mmHg 77%
04:00 +25°C° 0 mm 0 m/S 652 mmHg 76%
05:00 +25°C° 0 mm 0 m/S 652 mmHg 75%
06:00 +26°C° 0.1 mm 0 m/S 652 mmHg 71%
07:00 +26°C° 0.1 mm 0 m/S 652 mmHg 68%
08:00 +27°C° 0.1 mm 0 m/S 652 mmHg 64%
09:00 +31°C° 0 mm 1 m/S 653 mmHg 59%
10:00 +32°C° 0 mm 1 m/S 653 mmHg 54%
11:00 +34°C° 0 mm 2 m/S 653 mmHg 49%
12:00 +35°C° 0 mm 2 m/S 653 mmHg 46%
13:00 +36°C° 0 mm 2 m/S 653 mmHg 42%
14:00 +37°C° 0 mm 3 m/S 652 mmHg 39%
15:00 +37°C° 0 mm 3 m/S 652 mmHg 40%
16:00 +37°C° 0 mm 3 m/S 652 mmHg 40%
17:00 +37°C° 0 mm 3 m/S 652 mmHg 41%
18:00 +35°C° 0 mm 2 m/S 652 mmHg 49%
19:00 +34°C° 0 mm 2 m/S 652 mmHg 56%
20:00 +31°C° 0 mm 1 m/S 652 mmHg 64%
21:00 +31°C° 0 mm 1 m/S 652 mmHg 67%
22:00 +30°C° 0 mm 1 m/S 652 mmHg 71%
23:00 +30°C° 0 mm 1 m/S 653 mmHg 74%

17 August, Montag

Zeit Temperatur Niederschläge Wind Luftdruck Luftfeuchtigkeit
00:00 +29°C° 0 mm 1 m/S 652 mmHg 75%
01:00 +27°C° 0 mm 0 m/S 652 mmHg 75%
02:00 +26°C° 0 mm 0 m/S 652 mmHg 76%
03:00 +26°C° 0 mm 0 m/S 652 mmHg 75%
04:00 +26°C° 0 mm 0 m/S 652 mmHg 74%
05:00 +27°C° 0 mm 1 m/S 652 mmHg 73%
06:00 +28°C° 0 mm 1 m/S 652 mmHg 69%
07:00 +29°C° 0 mm 1 m/S 652 mmHg 65%
08:00 +30°C° 0 mm 1 m/S 652 mmHg 62%
09:00 +31°C° 0 mm 1 m/S 653 mmHg 58%
10:00 +32°C° 0 mm 2 m/S 653 mmHg 54%
11:00 +34°C° 0 mm 2 m/S 653 mmHg 51%
12:00 +35°C° 0 mm 2 m/S 653 mmHg 48%
13:00 +36°C° 0 mm 3 m/S 653 mmHg 45%
14:00 +37°C° 0 mm 3 m/S 652 mmHg 41%
15:00 +37°C° 0 mm 3 m/S 652 mmHg 42%
16:00 +37°C° 0 mm 3 m/S 652 mmHg 42%
17:00 +37°C° 0 mm 3 m/S 652 mmHg 43%
18:00 +35°C° 0 mm 2 m/S 652 mmHg 50%
19:00 +34°C° 0 mm 2 m/S 652 mmHg 58%
20:00 +32°C° 0 mm 1 m/S 652 mmHg 65%
21:00 +31°C° 0.1 mm 1 m/S 652 mmHg 68%
22:00 +30°C° 0.1 mm 1 m/S 652 mmHg 72%
23:00 +30°C° 0.1 mm 1 m/S 653 mmHg 75%
Mehr zeigen